Location: Cahas Mountain Overlook
(37.0833°N, 80.1000°W)
Time: 07:46:47
(UTC-04:00)

Tiros 1 - Pass Details

Date: 17 February 2026
Orbit: 618 x 650 km, 48.4° (Epoch: 14 March)

Event Time Altitude Azimuth Distance (km) Brightness Sun altitude
Rises 09:29:40 0° 252° (WSW) 2,905 10.2 24.6°
Reaches altitude 10° 09:32:04 10° 258° (WSW) 1,995 9.4 25.0°
Maximum altitude 09:36:29 46° 332° (NNW) 834 7.6 25.7°
Drops below altitude 10° 09:40:53 10° 46° (NE) 1,985 9.8 26.4°
Sets 09:43:17 0° 53° (NE) 2,890 10.6 26.7°
